Tracking 35280 objects as of 7-Sep-2026
HD Live streaming from Space Station
objects crossing your sky now

SOYUZ-T 3


SOYUZ-T 3 is no longer on orbit


NORAD ID: 12077
Int'l Code: 1980-094A
Launch date: November 27, 1980
Source: Commonwealth of Independent States (former USSR) (CIS)
Launch site: TYURATAM MISSILE AND SPACE COMPLEX (TTMTR)
Decay date: 1980-12-10
Your satellite tracking list
Your tracking list is empty




NASA's NSSDC Master Catalog

Two Line Element Set (TLE):
1 12077U 80094  A 80333.27033734  .00663252 +62797-5 +86466-3 0  9997
2 12077 051.6188 287.4814 0003232 270.2842 089.7800 16.06310359000115
Source of the keplerian elements: AFSPC